Weather History for La Crosse, WI

Change the Weather History Date:

Saturday, March 2, 2013

  Actual Average Record
Temperature  
Mean Temperature 17 °F 28 °F  
Max Temperature 28 °F 37 °F 65 °F (1923)
Min Temperature 6 °F 20 °F -16 °F (1890)
Degree Days  
Heating Degree Days 48 37  
Month to date heating degree days 92 74  
Since 1 July heating degree days 5421 5583  
Cooling Degree Days 0 0  
Month to date cooling degree days 0 0  
Year to date cooling degree days 0 0  
Moisture  
Dew Point 8 °F    
Average Humidity 67    
Maximum Humidity 88    
Minimum Humidity 46    
Precipitation  
Precipitation 0.00 in 0.06 in 0.55 in (1951)
Month to date precipitation T 0.11  
Year to date precipitation 2.40 2.28  
Snow  
Snow 0.00 in 0.30 in 6.90 in (2007)
Month to date snowfall T 0.6  
Since 1 July snowfall 40.0 35.1  
Snow Depth 5.00 in    
Sea Level Pressure  
Sea Level Pressure 30.32 in    
Wind  
Wind Speed 6 mph (NW)    
Max Wind Speed 13 mph    
Max Gust Speed 14 mph    
Visibility 10 miles    
Events      
T = Trace of Precipitation, MM = Missing Value Source: NWS Daily Summary

Daily Weather History Graph

Daily Weather History Graph

Search for Another Location

Airport:

Trip Planner

Search our weather history database for the weather conditions in past years. The results will help you decide how hot, cold, wet, or windy it might be!

Date:

Astronomy

Mar. 02, 2013 Rise Set
Actual Time 6:39 AM CST 5:55 PM CST
Civil Twilight 6:10 AM CST 6:24 PM CST
Nautical Twilight 5:37 AM CST 6:57 PM CST
Astronomical Twilight 5:04 AM CST 7:30 PM CST
Moon 11:47 PM CST (3/2) 8:56 AM CST (3/2)
Length of Visible Light 12h 13m
Length of Day
11h 15m
Waning Gibbous, 74% of the Moon is Illuminated
Mar 2
Waning Gibbous
Mar 4
Last Quarter
Mar 11
New
Mar 19
First Quarter
Mar 27
Full

Hourly Weather History & Observations

Time (CST) Temp. Windchill Dew Point Humidity Pressure Visibility Wind Dir Wind Speed Gust Speed Precip Events Conditions
12:53 AM 12.9 °F 1.6 °F 7.0 °F 77% 30.35 in 10.0 mi NW 8.1 mph - N/A   Clear
1:53 AM 10.9 °F 0.2 °F 6.1 °F 81% 30.36 in 10.0 mi NW 6.9 mph - N/A   Clear
2:53 AM 9.0 °F -2.2 °F 5.0 °F 84% 30.35 in 10.0 mi NNW 6.9 mph - N/A   Clear
3:53 AM 10.0 °F -0.9 °F 6.1 °F 84% 30.35 in 10.0 mi North 6.9 mph - N/A   Clear
4:53 AM 8.1 °F -3.2 °F 5.0 °F 87% 30.37 in 10.0 mi NNW 6.9 mph - N/A   Clear
6:53 AM 7.0 °F -1.7 °F 3.9 °F 87% 30.38 in 10.0 mi NNW 4.6 mph - N/A   Clear
7:53 AM 10.9 °F -0.8 °F 7.0 °F 84% 30.38 in 10.0 mi NNW 8.1 mph - N/A   Clear
8:53 AM 14.0 °F 2.9 °F 9.0 °F 80% 30.38 in 10.0 mi NW 8.1 mph - N/A   Clear
9:53 AM 18.0 °F 7.7 °F 10.0 °F 71% 30.37 in 10.0 mi WNW 8.1 mph - N/A   Clear
10:53 AM 21.0 °F 10.6 °F 10.0 °F 63% 30.35 in 10.0 mi WNW 9.2 mph - N/A   Clear
11:53 AM 23.0 °F 14.7 °F 10.9 °F 60% 30.34 in 10.0 mi WNW 6.9 mph - N/A   Clear
12:53 PM 26.1 °F 16.8 °F 10.9 °F 53% 30.31 in 10.0 mi NW 9.2 mph - N/A   Clear
1:53 PM 27.0 °F 18.7 °F 10.0 °F 49% 30.28 in 10.0 mi WNW 8.1 mph - N/A   Clear
2:53 PM 28.0 °F 19.3 °F 10.0 °F 47% 30.27 in 10.0 mi WNW 9.2 mph - N/A   Clear
3:53 PM 27.0 °F 18.0 °F 10.0 °F 49% 30.27 in 10.0 mi WNW 9.2 mph - N/A   Clear
4:53 PM 26.1 °F 16.8 °F 9.0 °F 49% 30.28 in 10.0 mi NW 9.2 mph - N/A   Clear
5:53 PM 21.9 °F 17.2 °F 6.1 °F 51% 30.27 in 10.0 mi NW 3.5 mph - N/A   Clear
7:53 PM 17.1 °F - 5.0 °F 59% 30.28 in 10.0 mi Calm Calm - N/A   Clear
8:53 PM 19.9 °F - 8.1 °F 60% 30.27 in 10.0 mi Calm Calm - N/A   Mostly Cloudy
9:53 PM 19.0 °F - 8.1 °F 62% 30.26 in 10.0 mi Calm Calm - N/A   Mostly Cloudy
10:53 PM 19.0 °F - 9.0 °F 65% 30.25 in 10.0 mi Calm Calm - N/A   Scattered Clouds
11:53 PM 17.1 °F - 8.1 °F 68% 30.24 in 10.0 mi Calm Calm - N/A   Clear